Regional Weather Roundup
Issued by NWS

Home | Current Version | Previous Version | Graphics & Text | Print | Product List | Glossary On
Versions: 1 2 3 4 5 6 7 8 9 10 11 12 13 14 15 16 17 18 19 20 21 22 23 24 25 26 27 28 29 30 31 32 33 34 35 36 37 38 39 40 41 42 43 44 45 46 47 48 49 50
349
ASUS45 KCYS 240910
RWRWY

WYOMING REGIONAL WEATHER ROUNDUP
NATIONAL WEATHER SERVICE CHEYENNE WY
200 AM MST FRI FEB 24 2017

NOTE:  "FAIR" INDICATES FEW OR NO CLOUDS BELOW 12,000 FEET
WITH NO SIGNIFICANT WEATHER AND/OR OBSTRUCTIONS TO VISIBILITY.

WYZ001-241000-
YELLOWSTONE NATIONAL PARK

CITY           SKY/WX    TMP DP  RH WIND       PRES   REMARKS
LK YELLOWSTONE   N/A      2   0  91 CALM      29.76R
W YELLOWSTONE  NOT AVBL

$$
WYZ002>013-054>058-071-098>099-241000-
NORTHERN WYOMING

CITY           SKY/WX    TMP DP  RH WIND       PRES   REMARKS
JACKSON        MOCLDY    18  18 100 CALM      29.79R
CODY           FAIR      15  11  83 CALM      29.88F
GREYBULL       LGT SNOW  24  22  91 NW7       29.91S FOG     WCI  16
WORLAND        CLOUDY    20  20 100 W5        29.91S WCI  13
SHERIDAN       CLOUDY    22  18  85 SE12      29.94F WCI  10
BUFFALO        CLOUDY    20  16  84 S5        29.91F WCI  13
GILLETTE       LGT SNOW  23  21  92 NE6       29.93R FOG     WCI  16
HULETT         CLOUDY    23  19  86 MISG      29.96S
NEWCASTLE      LGT SNOW  23  23 100 N5        29.94S WCI  17

$$
WYZ014>020-022>026-101>103-241000-
CENTRAL WYOMING

CITY           SKY/WX    TMP DP  RH WIND       PRES   REMARKS
BIG PINEY      CLOUDY    15  10  80 S12       29.77S WCI   2
PINEDALE       LGT SNOW  18  14  86 CALM      29.78R
DUBOIS         LGT SNOW  12  10  92 SE7       29.77R WCI   2
LANDER         LGT SNOW  18  16  92 CALM      29.85S FOG
RIVERTON       LGT SNOW  18  15  88 E3        29.86S FOG
CASPER         CLOUDY    15  12  88 NE9       29.86R WCI   3
DOUGLAS        CLOUDY    12  10  92 CALM      29.90S

$$
WYZ021-027>030-104>119-241000-
SOUTHERN WYOMING

CITY           SKY/WX    TMP DP  RH WIND       PRES   REMARKS
EVANSTON       CLOUDY    14  10  84 W9        29.79R WCI   2
FORT BRIDGER   SNOW      17  17 100 W7        29.81S VSB 1/2 WCI   8
ROCK SPRINGS   CLOUDY    15   9  76 NE6       29.78R WCI   6
DIXON          FLURRIES  18  12  77 SW13      29.77R WCI   5
RAWLINS        FLURRIES  13   7  77 NE20      29.72R WCI  -5
SARATOGA       CLOUDY    16   9  73 SE12      29.70R WCI   3
LARAMIE        CLOUDY     7   4  87 CALM      29.74R
CHEYENNE       LGT SNOW  13  10  88 NW5       29.80F FOG     WCI   5
TORRINGTON     LGT SNOW  20  16  84 NE13      29.90S FOG     WCI   7
PINE BLUFFS    CLOUDY    18  16  93 N13G28    29.85S WCI   4

$$




USA.gov is the U.S. government's official web portal to all federal, state and local government web resources and services.